Washington, PA

8:50 AM EST on December 15, 2019 (GMT -0500)
Washington County

Weather History for KAFJ - November, 2019

Change the Weather History Date:

Saturday, November 16, 2019

  Actual Average Record
Temperature  
Mean Temperature 34 °F -  
Max Temperature 43 °F 47 °F 66 °F (2001)
Min Temperature 25 °F 30 °F 15 °F (1996)
Degree Days  
Heating Degree Days 31    
Moisture  
Dew Point 21 °F    
Average Humidity 63    
Maximum Humidity 96    
Minimum Humidity 38    
Precipitation  
Precipitation 0.00 in - - ()
Sea Level Pressure  
Sea Level Pressure 30.35 in    
Wind  
Wind Speed 6 mph ()    
Max Wind Speed 15 mph    
Max Gust Speed 20 mph    
Visibility 9.4 miles    
Events      
Averages and records for this station are not official NWS values.
T = Trace of Precipitation, MM = Missing Value Source: Averaged Metar Reports

Daily Weather History Graph

Daily Weather History Graph

Search for Another Location

Airport or City:

Astronomy

Nov. 16, 2019 Rise Set
Actual Time 7:07 AM EST 5:03 PM EST
Civil Twilight 6:38 AM EST 5:32 PM EST
Nautical Twilight 6:05 AM EST 6:05 PM EST
Astronomical Twilight 5:33 AM EST 6:37 PM EST
Moon 8:35 PM EST (11/16) 11:00 AM EST (11/16)
Length of Visible Light 10h 54m
Length of Day
9h 56m
Waning Gibbous, 82% of the Moon is Illuminated
Nov 16
Waning Gibbous
Nov 19
Last Quarter
Nov 26
New
Dec 4
First Quarter
Dec 12
Full

Hourly Weather History & Observations

Time (EST) Temp. Windchill Dew Point Humidity Pressure Visibility Wind Dir Wind Speed Gust Speed Precip Events Conditions
12:56 AM 33.1 °F 26.1 °F 27.0 °F 78% 30.38 in 10.0 mi NNE 8.1 mph - N/A   Overcast
1:56 AM 30.0 °F 24.1 °F 27.0 °F 88% 30.37 in 9.0 mi North 5.8 mph - N/A   Scattered Clouds
2:56 AM 28.0 °F 24.2 °F 26.1 °F 92% 30.37 in 8.0 mi North 3.5 mph - N/A   Partly Cloudy
3:56 AM 25.0 °F - 21.9 °F 88% 30.36 in 6.0 mi Calm Calm - N/A   Clear
4:56 AM 25.0 °F 20.7 °F 24.1 °F 96% 30.37 in 7.0 mi North 3.5 mph - N/A   Clear
5:56 AM 25.0 °F 19.3 °F 23.0 °F 92% 30.38 in 8.0 mi NNE 4.6 mph - N/A   Clear
6:56 AM 25.0 °F 17.1 °F 24.1 °F 96% 30.41 in 9.0 mi NE 6.9 mph - N/A   Clear
7:56 AM 26.1 °F 18.4 °F 25.0 °F 96% 30.43 in 9.0 mi NNE 6.9 mph - N/A   Clear
8:56 AM 33.1 °F 24.9 °F 27.0 °F 78% 30.43 in 10.0 mi NE 10.4 mph - N/A   Clear
9:56 AM 36.0 °F 26.7 °F 25.0 °F 64% 30.42 in 10.0 mi NE 15.0 mph - N/A   Clear
10:56 AM 37.9 °F 30.9 °F 24.1 °F 57% 30.42 in 10.0 mi ENE 10.4 mph 19.6 mph N/A   Clear
12:56 PM 42.1 °F 34.9 °F 24.1 °F 49% 30.35 in 10.0 mi ENE 13.8 mph 18.4 mph N/A   Clear
1:56 PM 43.0 °F 36.4 °F 23.0 °F 45% 30.32 in 10.0 mi ENE 12.7 mph - N/A   Clear
2:56 PM 43.0 °F 36.8 °F 21.9 °F 43% 30.32 in 10.0 mi NE 11.5 mph - N/A   Clear
3:56 PM 42.1 °F 36.6 °F 21.0 °F 43% 30.32 in 10.0 mi ENE 9.2 mph - N/A   Clear
4:56 PM 39.0 °F 34.0 °F 19.0 °F 45% 30.33 in 10.0 mi NE 6.9 mph - N/A   Clear
5:56 PM 36.0 °F 30.3 °F 18.0 °F 48% 30.33 in 10.0 mi NE 6.9 mph - N/A   Clear
6:56 PM 35.1 °F 28.6 °F 15.1 °F 44% 30.34 in 10.0 mi ENE 8.1 mph - N/A   Clear
7:56 PM 34.0 °F 28.0 °F 10.9 °F 38% 30.33 in 10.0 mi ENE 6.9 mph - N/A   Clear
8:56 PM 33.1 °F 26.1 °F 10.9 °F 40% 30.32 in 10.0 mi East 8.1 mph - N/A   Clear
9:56 PM 32.0 °F 25.6 °F 12.0 °F 44% 30.30 in 10.0 mi East 6.9 mph - N/A   Clear
10:56 PM 30.9 °F 24.3 °F 12.9 °F 47% 30.29 in 10.0 mi East 6.9 mph - N/A   Clear
11:56 PM 30.0 °F 25.2 °F 12.9 °F 49% 30.27 in 10.0 mi ENE 4.6 mph - N/A   Clear